Location: C�mpuri de-Sus
(45.9500°N, 22.5500°E)
Time: 06:03:52
(UTC+00:00)

CZ-2C R/B - Pass Details

Date: 24 October 2021
Orbit: 784 x 871 km, 98.2° (Epoch: 04 December)

Event Time Altitude Azimuth Distance (km) Brightness Sun altitude
Rises 16:58:28 0° 12° (NNE) 3,466 5.8 -16.3°
Reaches altitude 10° 17:00:53 10° 12° (NNE) 2,519 5.0 -16.7°
Maximum altitude 17:06:29 81° 286° (WNW) 873 2.8 -17.7°
Drops below altitude 10° 17:11:58 10° 200° (SSW) 2,457 5.3 -18.7°
Sets 17:14:18 0° 199° (SSW) 3,376 6.0 -19.1°
